Hourly Weather La Ciotat

Today, 26 February, Friday

Time Temperature Precipitation Wind Pressure Humidity
00:00 +13°C° 0 mm 2 mps 770 mmHg 66%
01:00 +13°C° 0 mm 2 mps 770 mmHg 65%
02:00 +12°C° 0 mm 2 mps 769 mmHg 63%
03:00 +12°C° 0 mm 2 mps 769 mmHg 62%
04:00 +12°C° 0 mm 2 mps 769 mmHg 61%
05:00 +11°C° 0 mm 3 mps 769 mmHg 61%
06:00 +11°C° 0 mm 3 mps 769 mmHg 62%
07:00 +12°C° 0 mm 3 mps 769 mmHg 57%
08:00 +14°C° 0 mm 3 mps 769 mmHg 52%
09:00 +16°C° 0 mm 3 mps 769 mmHg 47%
10:00 +17°C° 0 mm 3 mps 768 mmHg 43%
11:00 +19°C° 0 mm 3 mps 768 mmHg 39%
12:00 +19°C° 0 mm 3 mps 768 mmHg 37%
13:00 +19°C° 0 mm 4 mps 768 mmHg 38%
14:00 +19°C° 0 mm 4 mps 767 mmHg 40%
15:00 +19°C° 0 mm 4 mps 766 mmHg 41%
16:00 +18°C° 0 mm 4 mps 766 mmHg 47%
17:00 +15°C° 0 mm 4 mps 766 mmHg 52%
18:00 +14°C° 0 mm 4 mps 766 mmHg 58%
19:00 +14°C° 0 mm 4 mps 766 mmHg 60%
20:00 +13°C° 0 mm 4 mps 766 mmHg 62%
21:00 +13°C° 0 mm 4 mps 766 mmHg 64%
22:00 +12°C° 0 mm 4 mps 766 mmHg 64%
23:00 +12°C° 0 mm 4 mps 765 mmHg 64%

Tomorrow, 27 February, Saturday

Time Temperature Precipitation Wind Pressure Humidity
00:00 +12°C° 0 mm 5 mps 765 mmHg 65%
01:00 +12°C° 0 mm 5 mps 765 mmHg 67%
02:00 +10°C° 0 mm 5 mps 765 mmHg 70%
03:00 +10°C° 0 mm 6 mps 764 mmHg 72%
04:00 +9°C° 0 mm 6 mps 764 mmHg 74%
05:00 +9°C° 0 mm 6 mps 764 mmHg 76%
06:00 +8°C° 0 mm 7 mps 764 mmHg 78%
07:00 +9°C° 0 mm 6 mps 764 mmHg 75%
08:00 +10°C° 0 mm 6 mps 763 mmHg 72%
09:00 +11°C° 0 mm 6 mps 763 mmHg 69%
10:00 +12°C° 0.2 mm 5 mps 764 mmHg 68%
11:00 +13°C° 0.2 mm 5 mps 764 mmHg 66%
12:00 +13°C° 0.2 mm 5 mps 764 mmHg 65%
13:00 +14°C° 0.3 mm 5 mps 764 mmHg 62%
14:00 +15°C° 0.3 mm 5 mps 764 mmHg 58%
15:00 +15°C° 0.3 mm 5 mps 764 mmHg 55%
16:00 +14°C° 0.2 mm 4 mps 764 mmHg 60%
17:00 +14°C° 0.2 mm 4 mps 764 mmHg 65%
18:00 +13°C° 0.2 mm 3 mps 764 mmHg 70%
19:00 +12°C° 0.5 mm 3 mps 764 mmHg 72%
20:00 +12°C° 0.5 mm 3 mps 765 mmHg 75%
21:00 +12°C° 0.5 mm 3 mps 765 mmHg 77%
22:00 +12°C° 0.6 mm 3 mps 765 mmHg 79%
23:00 +11°C° 0.6 mm 3 mps 765 mmHg 80%

Day after tomorrow, 28 February, Sunday

Time Temperature Precipitation Wind Pressure Humidity
00:00 +12°C° 0.6 mm 2 mps 766 mmHg 81%
01:00 +11°C° 0.1 mm 3 mps 765 mmHg 80%
02:00 +11°C° 0.1 mm 4 mps 765 mmHg 80%
03:00 +10°C° 0.1 mm 6 mps 765 mmHg 80%
04:00 +9°C° 0 mm 5 mps 765 mmHg 80%
05:00 +9°C° 0 mm 5 mps 766 mmHg 81%
06:00 +9°C° 0 mm 5 mps 766 mmHg 81%
07:00 +10°C° 0 mm 5 mps 766 mmHg 75%
08:00 +12°C° 0 mm 5 mps 766 mmHg 70%
09:00 +14°C° 0 mm 5 mps 766 mmHg 64%
10:00 +15°C° 0 mm 6 mps 766 mmHg 58%
11:00 +16°C° 0 mm 7 mps 767 mmHg 53%
12:00 +17°C° 0 mm 7 mps 767 mmHg 47%
13:00 +16°C° 0 mm 7 mps 766 mmHg 46%
14:00 +16°C° 0 mm 7 mps 766 mmHg 45%
15:00 +16°C° 0 mm 7 mps 766 mmHg 43%
16:00 +15°C° 0 mm 6 mps 766 mmHg 50%
17:00 +13°C° 0 mm 6 mps 766 mmHg 56%
18:00 +12°C° 0 mm 5 mps 766 mmHg 62%
19:00 +12°C° 0 mm 4 mps 767 mmHg 64%
20:00 +11°C° 0 mm 4 mps 767 mmHg 65%
21:00 +11°C° 0 mm 3 mps 767 mmHg 67%
22:00 +10°C° 0 mm 3 mps 767 mmHg 69%
23:00 +10°C° 0 mm 3 mps 767 mmHg 71%

1 March, Monday

Time Temperature Precipitation Wind Pressure Humidity
00:00 +10°C° 0 mm 3 mps 767 mmHg 73%
01:00 +10°C° 0 mm 3 mps 767 mmHg 75%
02:00 +10°C° 0 mm 3 mps 767 mmHg 77%
03:00 +9°C° 0 mm 3 mps 767 mmHg 78%
04:00 +9°C° 0 mm 3 mps 767 mmHg 79%
05:00 +8°C° 0 mm 4 mps 767 mmHg 79%
06:00 +8°C° 0 mm 4 mps 767 mmHg 80%
07:00 +10°C° 0 mm 4 mps 767 mmHg 74%
08:00 +11°C° 0 mm 4 mps 767 mmHg 69%
09:00 +12°C° 0 mm 5 mps 767 mmHg 63%
10:00 +13°C° 0 mm 5 mps 767 mmHg 58%
11:00 +14°C° 0 mm 6 mps 768 mmHg 53%
12:00 +15°C° 0 mm 6 mps 768 mmHg 48%
13:00 +15°C° 0 mm 6 mps 767 mmHg 47%
14:00 +15°C° 0 mm 6 mps 767 mmHg 46%
15:00 +15°C° 0 mm 6 mps 767 mmHg 45%
16:00 +14°C° 0 mm 6 mps 767 mmHg 51%
17:00 +13°C° 0 mm 6 mps 767 mmHg 56%
18:00 +12°C° 0 mm 5 mps 768 mmHg 62%
19:00 +10°C° 0 mm 5 mps 768 mmHg 62%
20:00 +10°C° 0 mm 5 mps 768 mmHg 62%
21:00 +10°C° 0 mm 4 mps 769 mmHg 62%
22:00 +10°C° 0 mm 4 mps 769 mmHg 65%
23:00 +9°C° 0 mm 5 mps 769 mmHg 69%

2 March, Tuesday

Time Temperature Precipitation Wind Pressure Humidity
00:00 +9°C° 0 mm 5 mps 769 mmHg 72%
01:00 +8°C° 0 mm 5 mps 769 mmHg 73%
02:00 +8°C° 0 mm 4 mps 769 mmHg 74%
03:00 +8°C° 0 mm 4 mps 768 mmHg 76%
04:00 +8°C° 0 mm 5 mps 769 mmHg 76%
05:00 +8°C° 0 mm 5 mps 769 mmHg 75%
06:00 +8°C° 0 mm 5 mps 769 mmHg 75%
07:00 +9°C° 0 mm 5 mps 769 mmHg 67%
08:00 +10°C° 0 mm 6 mps 769 mmHg 59%
09:00 +13°C° 0 mm 6 mps 770 mmHg 51%
10:00 +14°C° 0 mm 6 mps 770 mmHg 48%
11:00 +15°C° 0 mm 6 mps 770 mmHg 46%
12:00 +16°C° 0 mm 6 mps 770 mmHg 43%
13:00 +16°C° 0 mm 6 mps 770 mmHg 43%
14:00 +16°C° 0 mm 6 mps 770 mmHg 42%
15:00 +15°C° 0 mm 5 mps 770 mmHg 42%
16:00 +14°C° 0 mm 5 mps 770 mmHg 46%
17:00 +13°C° 0 mm 5 mps 770 mmHg 50%
18:00 +12°C° 0 mm 4 mps 770 mmHg 54%
19:00 +11°C° 0 mm 4 mps 770 mmHg 54%
20:00 +11°C° 0 mm 3 mps 770 mmHg 55%
21:00 +10°C° 0 mm 3 mps 771 mmHg 55%
22:00 +10°C° 0 mm 3 mps 771 mmHg 54%
23:00 +10°C° 0 mm 2 mps 771 mmHg 53%

3 March, Wednesday

Time Temperature Precipitation Wind Pressure Humidity
00:00 +10°C° 0 mm 2 mps 771 mmHg 52%
01:00 +10°C° 0 mm 2 mps 771 mmHg 52%
02:00 +10°C° 0 mm 2 mps 770 mmHg 53%
03:00 +9°C° 0 mm 2 mps 770 mmHg 53%
04:00 +9°C° 0 mm 2 mps 770 mmHg 53%
05:00 +9°C° 0 mm 2 mps 770 mmHg 53%
06:00 +9°C° 0 mm 2 mps 770 mmHg 53%
07:00 +11°C° 0 mm 1 mps 770 mmHg 49%
08:00 +13°C° 0 mm 1 mps 770 mmHg 44%
09:00 +14°C° 0 mm 1 mps 771 mmHg 40%
10:00 +15°C° 0 mm 1 mps 770 mmHg 37%
11:00 +16°C° 0 mm 2 mps 770 mmHg 34%
12:00 +17°C° 0 mm 2 mps 770 mmHg 32%
13:00 +17°C° 0 mm 2 mps 770 mmHg 34%
14:00 +17°C° 0 mm 2 mps 769 mmHg 36%
15:00 +16°C° 0 mm 2 mps 769 mmHg 39%
16:00 +15°C° 0 mm 2 mps 769 mmHg 45%
17:00 +14°C° 0 mm 1 mps 769 mmHg 51%
18:00 +13°C° 0 mm 1 mps 769 mmHg 57%
19:00 +12°C° 0 mm 1 mps 769 mmHg 59%
20:00 +12°C° 0 mm 1 mps 769 mmHg 62%
21:00 +12°C° 0 mm 1 mps 769 mmHg 65%
22:00 +11°C° 0 mm 1 mps 769 mmHg 65%
23:00 +11°C° 0 mm 1 mps 769 mmHg 64%
Show more

We Need Your Consent

Meteoprog and our Service Providers may store and access personal data such as cookies, device identifiers or other similar technologies on your device and process such data to personalise content and ads, as well as provide social media features and to analyse the traffic.

  • Store and/or access information on your device

    Cookies, device identifiers or other information can be stored or accessed on your device for the purposes indicated above.

  • Personalised ads and content, ad and content measurement, audience insights, and products development

    Ads and content can be personalised based on a profile. More data can be added to better personalise ads and content. Ad and content performance can be measured. Insights about the audience who saw the ads and content can be derived. Such data can be used to develop or improve user’s experience, systems and software.

By clicking ‘I Agree’ you will allow the use of indicated cookies, device identifiers, web beacons or other similar technologies. Your settings can be changed in the browser on your device.

For certain purposes, legitimate interests may be relied on, rather than consent. You can read more about this in our Privacy and Cookie Policy.